Location: �perlecques
(50.8057°N, 2.1521°E)
Time: 07:01:07
(UTC+00:00)

STARS - Pass Details

Date: 10 April 2023
Orbit: 616 x 630 km, 98.1° (Epoch: 03 June)

Event Time Altitude Azimuth Distance (km) Brightness Sun altitude
Rises 00:44:15 0° 2° (N) 2,924 ? -30.4°
Reaches altitude 10° 00:47:02 10° 344° (NNW) 2,014 ? -30.2°
Enters shadow 00:49:21 17° 312° (NW) 1,584 ? -30.1°
